Regional Weather Roundup
Issued by NWS Newport/Morehead, NC

Current Version | Previous Version | Graphics & Text | Print | Product List | Glossary On
Versions: 1 2 3 4 5 6 7 8 9 10 11 12 13 14 15 16 17 18 19 20 21 22 23 24 25 26 27 28 29 30 31 32 33 34 35 36 37 38 39 40 41 42 43 44 45 46 47 48 49 50
000 ASUS42 KMHX 230125 RWRMHX WEATHER ROUNDUP FOR EASTERN NORTH CAROLINA NATIONAL WEATHER SERVICE NEWPORT/MOREHEAD CITY NC 900 PM EDT MON MAY 22 2017 NOTE: "FAIR" INDICATES FEW OR NO CLOUDS BELOW 12,000 FEET WITH NO SIGNIFICANT WEATHER AND/OR OBSTRUCTIONS TO VISIBILITY NCZ015>017-031-032-045>047-102-103-230200- NORTH COAST CITY SKY/WX TMP DP RH WIND PRES REMARKS EDENTON CLOUDY 74 67 80 CALM 29.97S ELIZABETH CITY CLOUDY 72 70 93 W3 29.96R KITTY HAWK NOT AVBL MANTEO CLOUDY 70 68 93 CALM 29.98R $$ NCZ045>047-081-094-103-104-230200- CENTRAL COAST CITY SKY/WX TMP DP RH WIND PRES REMARKS FRISCO HVY RAIN 70 66 87 W8G22 30.02R FOG $$ NCZ095-097-098-100-101-230200- SOUTHERN COAST CITY SKY/WX TMP DP RH WIND PRES REMARKS BEAUFORT CLOUDY 77 72 84 SW15 29.99R CEDAR ISLAND NOT AVBL JACKSONVILLE TSTM 69 68 96 SW7 29.98R PINEY ISLAND CLOUDY N/A N/A N/A CALM 29.99R WILMINGTON RAIN 69 68 96 S7 30.00S FOG $$ NCZ011>013-027>030-043-044-078>080-089-090>093-098-230200- COASTAL PLAIN CITY SKY/WX TMP DP RH WIND PRES REMARKS AHOSKIE N/A 68 67 97 CALM 29.98R CLINTON RAIN 68 68 100 SW3 29.99S ELIZABETHTOWN RAIN 68 68 100 SW6 30.01R GOLDSBORO MOCLDY 75 72 88 S8 29.97R GREENVILLE CLOUDY 73 68 83 CALM 30.00R HAVELOCK MOCLDY 76 69 79 SW6 30.00 KENANSVILLE RAIN 68 66 94 SW5 29.99S FOG KINSTON CLOUDY 75 68 78 CALM 29.99R NEW BERN LGT RAIN 70 67 90 W3 30.01R RICHLANDS LGT RAIN 68 67 96 SW5 30.00R ROCKY MOUNT CLOUDY 71 70 96 CALM 29.98R WASHINGTON CLOUDY 75 67 75 CALM 29.98R WHITEVILLE RAIN 67 66 96 CALM 30.00S $$ AMZ130-135-150-152-154-156-158-170-250-252-270-ANZ085-086-088-633-658-670-230200- MARINE OBSERVATIONS STATION/POSITION TIME TEMP WIND PRES WAVE SWELL AIR SEA DIR/SP/G HT/PER HT/PER (UTC) (F) (DEG/KT/KT) (MB) (FT/S) (FT/S) CHESAPEAKE LIGHT NOT AVBL 64 E VA BEACH 0050 70 69 210/ 16/ 19 1013.8 4/ 9 3/ 9 DUCK 0100 73 65 200/ 6/ 8 1014.1 2 E DUCK 0100 66 N/A 3/ 8 OREGON INLET 0100 160/ 10/ 14 N/A 13E OREGON INLT 0048 66 N/A 3/ 7 3/ 7 HATTERAS CG 0100 69 74 300/ 24/ 30 1016.5 DIAMOND BUOY 0050 78 78 220/ 17/ 21 1015.4 4/ 8 3/ 8 CAPE LOOKOUT 0100 76 230/ 6/ 8 1015.5 BEAUFORT LAB 0100 76 74 210/ 9/ 13 1014.8 30 SE NEW RVR IN 0108 76 76 230/ 14/ 17 1015.7 30 SE NEW RVR IN 0113 76 N/A 4/ 8 27 SE WRIGHTSVLE 0108 76 76 190/ 12/ 16 1015.0 5 SE WRIGHTSVLE 0108 68 75 300/ 4/ 8 1016.5 225 S CAPE HAT 0050 76 78 170/ 10/ 14 1017.7 3/ 8 3/ 8 41 SE CHARLESTON 0110 78 78 170/ 8/ 10 1015.0 $$

USA.gov is the U.S. government's official web portal to all federal, state and local government web resources and services.